Regional Weather Roundup
Issued by NWS

Home | Current Version | Previous Version | Text Only | Print | Product List | Glossary On
Versions: 1 2 3 4 5 6 7 8 9 10 11 12 13 14 15 16 17 18 19 20 21 22 23 24 25 26 27
000
ASCA42 TJSJ 011210
RWRPR
PUERTO RICO/U.S. VIRGIN ISLANDS HOURLY WEATHER ROUNDUP
NATIONAL WEATHER SERVICE SAN JUAN PR
800 AM AST SUN MAY 01 2016

PRZ001-004-011300-
PUERTO RICO

CITY           SKY/WX    TMP DP  RH WIND       PRES   REMARKS
SAN JUAN LMM   MOSUNNY   79  73  83 E3        29.97R
AGUADILLA      MOSUNNY   79  73  83 NE5       29.98R
CEIBA          CLOUDY    79  73  83 N5        29.98R
$$

PRZ006-007-011300-
U.S. VIRGIN ISLANDS

CITY           SKY/WX    TMP DP  RH WIND       PRES   REMARKS
CHARLOTTE AMA  PTSUNNY   81  72  74 E7        29.96R
CHRISTIANSTED  SUNNY     79  72  78 E8        29.96R
$$

HOURLY WEATHER ROUNDUP FOR THE NEWS MEDIA

CITY           SKY/WX    TMP DP  RH WIND       PRES   REMARKS
ORLANDO        PTSUNNY   74  68  81 SE6       30.04R
NEW YORK       LGT RAIN  50  42  74 SE7       30.23S
NEWARK         LGT RAIN  50  42  74 SE6       30.21S
CHICAGO        FOG       42  42 100 N13       29.96R VSB 1/4
HARTFORD       CLOUDY    45  40  82 CALM      30.26S
BOSTON         CLOUDY    47  35  63 S6        30.26S
DALLAS         PTCLDY    60  47  61 N12       29.94R
PHILADELPHIA   RAIN      47  41  80 E7        30.20S
LOS ANGELES    PTCLDY    56  51  84 E6        29.86R
WASHINGTON DC  LGT RAIN  51  50  96 S8        30.11S FOG



USA.gov is the U.S. government's official web portal to all federal, state and local government web resources and services.